CZ-4 DEB

基本信息
目录编号:
20849
目录名称:
CZ-4 DEB
国际标识:
1990-081M
轨道中心:
EARTH
物体状态:
在轨
发射日期:
1990-09-03 UTC
轨道信息
数据来源: 国际轨道数据
星历时间: 2026-07-14T04:11:13+0800
半长轴: 7206.578km
偏心率: 0.0040263
轨道倾角: 98.680°
近地点辐角: 23.874°
升交点赤经: 174.474°
平近点角: 336.430°
近地点: 799.425km
远地点: 857.457km
周期: 101.474分钟
每日圈数: 14.190875
详细信息
发射场:
TSC
轨道高度:
LEO
数据来源:
AOE Integration Group
参考系:
TEME
时间系统:
UTC
历元类型:
SGP4
2D轨道图
3D轨道图
轨道高度分析图
轨道倾角分析图
轨道综合分析图
查看轨道综合分析图